Corpus Christi, TX

3:32 AM CDT on August 22, 2017 (GMT -0500)
Corpus Christi International

Weather History for KCRP - December, 2012

Change the Weather History Date:

Wednesday, December 19, 2012

  Actual Average Record
Temperature  
Mean Temperature 79 °F 58 °F  
Max Temperature 85 °F 68 °F 85 °F (2012)
Min Temperature 72 °F 48 °F 21 °F (1996)
Degree Days  
Heating Degree Days 0 9  
Month to date heating degree days 42 141  
Since 1 July heating degree days 81 242  
Cooling Degree Days 14 1  
Month to date cooling degree days 130 37  
Year to date cooling degree days 4501 3512  
Growing Degree Days 28 (Base 50)    
Moisture  
Dew Point 69 °F    
Average Humidity 73    
Maximum Humidity 87    
Minimum Humidity 59    
Precipitation  
Precipitation 0.00 in 0.06 in 2.26 in (1928)
Month to date precipitation 0.02 1.06  
Year to date precipitation 18.81 30.99  
Snow  
Snow 0.00 in - - ()
Month to date snowfall 0.0  
Since 1 July snowfall 0.0  
Snow Depth 0.00 in    
Sea Level Pressure  
Sea Level Pressure 29.76 in    
Wind  
Wind Speed 21 mph (SSE)    
Max Wind Speed 32 mph    
Max Gust Speed 38 mph    
Visibility 10 miles    
Events      
T = Trace of Precipitation, MM = Missing Value Source: NWS Daily Summary

Daily Weather History Graph

Daily Weather History Graph

Search for Another Location

Airport or City:

Trip Planner

Search our weather history database for the weather conditions in past years. The results will help you decide how hot, cold, wet, or windy it might be!

Date:

Astronomy

Dec. 19, 2012 Rise Set
Actual Time 7:15 AM CST 5:39 PM CST
Civil Twilight 6:50 AM CST 6:04 PM CST
Nautical Twilight 6:20 AM CST 6:33 PM CST
Astronomical Twilight 5:52 AM CST 7:02 PM CST
Moon 11:59 AM CST (12/19) No Moon Set
Length of Visible Light 11h 14m
Length of Day
10h 23m
Waxing Crescent, 45% of the Moon is Illuminated
Dec 19
Waxing Crescent
Dec 19
First Quarter
Dec 28
Full
Jan 4
Last Quarter
Jan 11
New

Hourly Weather History & Observations

Time (CST) Temp. Heat Index Dew Point Humidity Pressure Visibility Wind Dir Wind Speed Gust Speed Precip Events Conditions
12:01 AM 73.4 °F - 69.8 °F 88% 29.83 in 10.0 mi SSE 20.7 mph - N/A   Mostly Cloudy
12:29 AM 73.4 °F - 69.8 °F 88% 29.83 in 10.0 mi SSE 20.7 mph - N/A   Mostly Cloudy
12:51 AM 73.9 °F - 69.1 °F 85% 29.83 in 10.0 mi South 18.4 mph - N/A   Mostly Cloudy
1:51 AM 73.9 °F - 69.1 °F 85% 29.81 in 10.0 mi South 18.4 mph 25.3 mph N/A   Overcast
2:51 AM 75.0 °F - 69.1 °F 82% 29.80 in 10.0 mi South 18.4 mph - N/A   Overcast
3:51 AM 75.0 °F - 69.1 °F 82% 29.79 in 10.0 mi South 19.6 mph - N/A   Overcast
4:48 AM 75.2 °F - 69.8 °F 83% 29.78 in 10.0 mi South 17.3 mph - N/A   Overcast
4:51 AM 75.0 °F - 69.1 °F 82% 29.78 in 10.0 mi SSE 18.4 mph - N/A   Overcast
5:51 AM 73.9 °F - 69.1 °F 85% 29.77 in 10.0 mi SSE 19.6 mph - N/A   Overcast
6:51 AM 73.9 °F - 70.0 °F 87% 29.78 in 9.0 mi SSE 19.6 mph 26.5 mph N/A   Overcast
7:51 AM 75.0 °F - 70.0 °F 84% 29.78 in 8.0 mi SSE 23.0 mph 29.9 mph N/A   Mostly Cloudy
8:51 AM 77.0 °F - 70.0 °F 79% 29.81 in 10.0 mi South 25.3 mph 34.5 mph N/A   Mostly Cloudy
9:19 AM 77.0 °F - 69.8 °F 78% 29.81 in 10.0 mi South 21.9 mph 31.1 mph N/A   Mostly Cloudy
9:51 AM 79.0 °F - 69.1 °F 72% 29.81 in 10.0 mi South 26.5 mph 38.0 mph N/A   Mostly Cloudy
10:51 AM 80.1 °F 82.9 °F 69.1 °F 69% 29.81 in 10.0 mi South 27.6 mph 32.2 mph N/A   Mostly Cloudy
11:51 AM 82.0 °F 85.5 °F 69.1 °F 65% 29.78 in 10.0 mi South 26.5 mph 34.5 mph N/A   Mostly Cloudy
12:51 PM 82.0 °F 85.5 °F 69.1 °F 65% 29.73 in 10.0 mi SSE 23.0 mph 31.1 mph N/A   Mostly Cloudy
1:51 PM 84.0 °F 87.8 °F 69.1 °F 61% 29.69 in 10.0 mi SSE 29.9 mph 35.7 mph N/A   Mostly Cloudy
1:54 PM 84.2 °F 88.4 °F 69.8 °F 62% 29.69 in 10.0 mi SSE 28.8 mph 35.7 mph N/A   Partly Cloudy
2:51 PM 84.0 °F 87.0 °F 68.0 °F 58% 29.68 in 10.0 mi South 26.5 mph 33.4 mph N/A   Partly Cloudy
3:51 PM 82.0 °F 85.5 °F 69.1 °F 65% 29.68 in 10.0 mi SSE 25.3 mph 34.5 mph N/A   Partly Cloudy
4:51 PM 80.1 °F 82.9 °F 69.1 °F 69% 29.68 in 10.0 mi SSE 26.5 mph 34.5 mph N/A   Partly Cloudy
5:51 PM 77.0 °F - 68.0 °F 74% 29.69 in 10.0 mi SSE 21.9 mph - N/A   Partly Cloudy
6:51 PM 75.9 °F - 69.1 °F 79% 29.70 in 10.0 mi SSE 21.9 mph - N/A   Partly Cloudy
7:51 PM 75.0 °F - 69.1 °F 82% 29.72 in 10.0 mi South 20.7 mph - N/A   Partly Cloudy
8:51 PM 75.0 °F - 69.1 °F 82% 29.73 in 10.0 mi SSE 17.3 mph - N/A   Partly Cloudy
9:51 PM 73.9 °F - 68.0 °F 82% 29.75 in 10.0 mi South 15.0 mph - N/A   Partly Cloudy
10:51 PM 73.0 °F - 68.0 °F 84% 29.77 in 10.0 mi South 10.4 mph - N/A   Clear
11:47 PM 71.6 °F - 68.0 °F 88% 29.78 in 10.0 mi South 10.4 mph - N/A   Mostly Cloudy
11:51 PM 71.6 °F - 68.0 °F 88% 29.78 in 10.0 mi South 10.4 mph - N/A   Overcast